Inverness, United Kingdom

7:55 AM GMT on January 16, 2018 (GMT +0000)
Inverness

Weather History for EGPE - July, 2013

Change the Weather History Date:

Wednesday, July 24, 2013

  Actual Average Record
Temperature  
Mean Temperature 67 °F -  
Max Temperature 75 °F 63 °F 78 °F (2008)
Min Temperature 59 °F 50 °F 42 °F (2010)
Cooling Degree Days 2    
Growing Degree Days 17 (Base 50)    
Moisture  
Dew Point 62 °F    
Average Humidity 84    
Maximum Humidity 100    
Minimum Humidity 64    
Precipitation  
Precipitation 0.00 in - - ()
Sea Level Pressure  
Sea Level Pressure 29.85 in    
Wind  
Wind Speed 3 mph ()    
Max Wind Speed 12 mph    
Max Gust Speed -    
Visibility 6.1 miles    
Events Fog , Rain    
Averages and records for this station are not official NWS values.
T = Trace of Precipitation, MM = Missing Value Source: Averaged Metar Reports

Daily Weather History Graph

Daily Weather History Graph

Search for Another Location

Airport or City:

Trip Planner

Search our weather history database for the weather conditions in past years. The results will help you decide how hot, cold, wet, or windy it might be!

Date:

Astronomy

Jul. 24, 2013 Rise Set
Actual Time 4:56 AM BST 9:47 PM BST
Civil Twilight 3:59 AM BST 10:43 PM BST
Nautical Twilight 2:09 AM BST 12:29 AM BST
Astronomical Twilight Sun does not rise Sun does not rise
Moon 9:55 PM BST (7/24) 7:40 AM BST (7/24)
Length of Visible Light 18h 43m
Length of Day
16h 51m
Waning Gibbous, 96% of the Moon is Illuminated
Jul 24
Waning Gibbous
Jul 29
Last Quarter
Aug 6
New
Aug 14
First Quarter
Aug 21
Full

Hourly Weather History & Observations

Time (BST) Temp. Dew Point Humidity Pressure Visibility Wind Dir Wind Speed Gust Speed Precip Events Conditions
12:20 AM 62.6 °F 60.8 °F 94% 29.89 in 4.3 mi WSW 3.5 mph - N/A Rain Light Rain
12:50 AM 62.6 °F 60.8 °F 94% 29.86 in 4.3 mi Calm Calm - N/A Rain Light Rain
1:20 AM 62.6 °F 60.8 °F 94% 29.86 in - Variable 2.3 mph - N/A Rain Light Rain
1:50 AM 62.6 °F 60.8 °F 94% 29.86 in 5.6 mi Variable 2.3 mph - N/A   Unknown
2:20 AM 62.6 °F 60.8 °F 94% 29.86 in 6.2 mi Variable 2.3 mph - N/A Rain Light Rain
2:50 AM 62.6 °F 60.8 °F 94% 29.86 in 6.2 mi ENE 6.9 mph - N/A Rain Light Rain
3:20 AM 62.6 °F 60.8 °F 94% 29.86 in 6.2 mi North 3.5 mph - N/A   Scattered Clouds
3:50 AM 60.8 °F 60.8 °F 100% 29.86 in 5.6 mi Calm Calm - N/A   Partly Cloudy
4:20 AM 60.8 °F 60.8 °F 100% 29.86 in 5.6 mi East 3.5 mph - N/A   Partly Cloudy
4:50 AM 60.8 °F 59.0 °F 94% 29.86 in 6.2 mi Variable 3.5 mph - N/A   Partly Cloudy
5:20 AM 59.0 °F 57.2 °F 94% 29.86 in 6.2 mi Variable 3.5 mph - N/A   Partly Cloudy
5:50 AM 59.0 °F 57.2 °F 94% 29.86 in 5.6 mi Calm Calm - N/A Fog Partly Cloudy
6:20 AM 59.0 °F 59.0 °F 100% 29.86 in 5.6 mi Calm Calm - N/A Fog Partly Cloudy
6:50 AM 60.8 °F 59.0 °F 94% 29.86 in 6.2 mi Variable 2.3 mph - N/A Fog Partly Cloudy
7:20 AM 60.8 °F 60.8 °F 100% 29.86 in 6.2 mi West 2.3 mph - N/A Fog Partly Cloudy
7:50 AM 62.6 °F 60.8 °F 94% 29.86 in 6.2 mi Variable 2.3 mph - N/A   Scattered Clouds
8:20 AM 62.6 °F 60.8 °F 94% 29.89 in 6.2 mi Calm Calm - N/A   Scattered Clouds
8:50 AM 64.4 °F 64.4 °F 100% 29.89 in 6.2 mi Variable 2.3 mph - N/A   Scattered Clouds
9:20 AM 66.2 °F 64.4 °F 94% 29.89 in 6.2 mi Variable 2.3 mph - N/A   Scattered Clouds
9:50 AM 68.0 °F 64.4 °F 88% 29.86 in 6.2 mi Variable 3.5 mph - N/A   Scattered Clouds
10:20 AM 68.0 °F 64.4 °F 88% 29.86 in 6.2 mi Variable 2.3 mph - N/A   Scattered Clouds
10:50 AM 69.8 °F 64.4 °F 83% 29.86 in 6.2 mi WNW 4.6 mph - N/A   Scattered Clouds
11:20 AM 68.0 °F 62.6 °F 83% 29.86 in 6.2 mi Variable 3.5 mph - N/A   Scattered Clouds
11:50 AM 69.8 °F 64.4 °F 83% 29.86 in 6.2 mi NNE 4.6 mph - N/A   Scattered Clouds
12:20 PM 71.6 °F 64.4 °F 78% 29.86 in 6.2 mi NNE 5.8 mph - N/A   Scattered Clouds
12:50 PM 75.2 °F 64.4 °F 69% 29.86 in 6.2 mi ENE 5.8 mph - N/A   Scattered Clouds
1:20 PM 69.8 °F 62.6 °F 78% 29.86 in 6.2 mi NNE 9.2 mph - N/A   Scattered Clouds
1:50 PM 73.4 °F 66.2 °F 78% 29.83 in 6.2 mi NE 11.5 mph - N/A   Scattered Clouds
2:20 PM 71.6 °F 64.4 °F 78% 29.83 in 6.2 mi NE 9.2 mph - N/A   Partly Cloudy
2:50 PM 73.4 °F 64.4 °F 73% 29.83 in 6.2 mi NE 9.2 mph - N/A   Scattered Clouds
3:20 PM 73.4 °F 64.4 °F 73% 29.83 in 6.2 mi NNE 9.2 mph - N/A   Scattered Clouds
3:50 PM 75.2 °F 64.4 °F 69% 29.83 in 6.2 mi NNE 8.1 mph - N/A   Scattered Clouds
4:20 PM 75.2 °F 64.4 °F 69% 29.83 in 6.2 mi NNE 6.9 mph - N/A   Scattered Clouds
4:50 PM 73.4 °F 64.4 °F 73% 29.83 in 6.2 mi NNE 4.6 mph - N/A   Scattered Clouds
5:20 PM 71.6 °F 64.4 °F 78% 29.83 in 6.2 mi NE 4.6 mph - N/A   Scattered Clouds
5:50 PM 73.4 °F 64.4 °F 73% 29.83 in 6.2 mi NE 2.3 mph - N/A   Scattered Clouds
6:20 PM 71.6 °F 64.4 °F 78% 29.83 in 6.2 mi NNE 4.6 mph - N/A   Partly Cloudy
6:50 PM 75.2 °F 62.6 °F 65% 29.83 in 6.2 mi NNE 4.6 mph - N/A   Partly Cloudy
7:20 PM 71.6 °F 59.0 °F 64% 29.83 in 6.2 mi WSW 8.1 mph - N/A   Partly Cloudy
7:50 PM 69.8 °F 60.8 °F 73% 29.83 in 6.2 mi WSW 4.6 mph - N/A   Partly Cloudy
8:20 PM 69.8 °F 60.8 °F 73% 29.83 in 6.2 mi Variable 3.5 mph - N/A   Partly Cloudy
8:50 PM 69.8 °F 60.8 °F 73% 29.86 in 6.2 mi West 2.3 mph - N/A   Partly Cloudy
9:20 PM 68.0 °F 60.8 °F 78% 29.86 in 6.2 mi South 6.9 mph - N/A   Partly Cloudy
9:50 PM 68.0 °F 59.0 °F 73% 29.86 in 6.2 mi Variable 2.3 mph - N/A   Partly Cloudy
10:20 PM 66.2 °F 59.0 °F 78% 29.86 in 6.2 mi Variable 2.3 mph - N/A   Unknown
10:50 PM 66.2 °F 59.0 °F 78% 29.86 in 6.2 mi Variable 2.3 mph - N/A   Unknown
11:20 PM 64.4 °F 59.0 °F 83% 29.86 in 6.2 mi Calm Calm - N/A   Unknown
11:50 PM 66.2 °F 57.2 °F 73% 29.86 in 6.2 mi West 4.6 mph - N/A   Unknown